Location: Toronto
(43.6667°N, 79.4167°W)
Time: 08:52:58
(UTC-05:00)

Envisat - Visible Passes

Search period start: 02 December 2022 00:00
Search period end: 12 December 2022 00:00
Orbit: 763 x 765 km, 98.2° (Epoch: 01 December)

Date Brightness Start Highest point End Pass type
(mag) Time Alt. Az. Time Alt. Az. Time Alt. Az.
02 Dec 4.9 05:00:19 10° N 05:01:31 17° N 05:01:31 17° N visible
03 Dec 5.4 04:23:16 10° NNE 04:23:54 14° NNE 04:23:54 14° NNE visible
03 Dec 5.0 06:03:34 10° NNW 06:04:05 12° NNW 06:04:05 12° NNW visible
04 Dec 5.0 05:25:38 10° N 05:26:29 14° N 05:26:29 14° N visible
05 Dec 5.3 04:48:18 10° N 04:48:54 13° N 04:48:54 13° N visible
06 Dec 5.1 05:51:13 10° NNW 05:51:29 11° NNW 05:51:29 11° NNW visible
06 Dec 6.0 17:09:11 10° WSW 17:11:33 13° W 17:13:55 10° WNW visible
07 Dec 5.2 05:13:31 10° N 05:13:55 12° N 05:13:55 12° N visible
08 Dec 5.6 04:36:20 10° NNE 04:36:21 10° NNE 04:36:21 10° NNE visible
09 Dec 5.3 05:38:58 10° N 05:38:58 10° N 05:38:58 10° N visible
